This is the latest recevied weather packets stored in our database for station/object N8JE-13. If no packets are shown the sender has not sent any weather packets the latest 10 day(s).
| Time | Temp. | Humidity | Pressure | Rain* | Wind** | Luminosity | Snow |
|---|---|---|---|---|---|---|---|
| 1777827052 | 14.44° C | 41% | 1018 hPa | 0 mm | - | - | - |
| 1777826752 | 14.44° C | 43% | 1018 hPa | 0 mm | - | - | - |
| 1777826452 | 13.89° C | 42% | 1018 hPa | 0 mm | - | - | - |
| 1777826151 | 14.44° C | 41% | 1018.1 hPa | 0 mm | - | - | - |
| 1777825851 | 15° C | 41% | 1018.2 hPa | 0 mm | - | - | - |
| 1777825550 | 14.44° C | 45% | 1018.2 hPa | 0 mm | - | - | - |
| 1777825252 | 14.44° C | 44% | 1018.2 hPa | 0 mm | - | - | - |
| 1777824951 | 14.44° C | 44% | 1018.2 hPa | 0 mm | - | - | - |
| 1777824651 | 14.44° C | 45% | 1018.3 hPa | 0 mm | - | - | - |
| 1777824350 | 13.89° C | 45% | 1018.4 hPa | 0 mm | - | - | - |
| 1777824051 | 13.89° C | 46% | 1018.4 hPa | 0 mm | - | - | - |
| 1777823751 | 13.89° C | 48% | 1018.5 hPa | 0 mm | - | - | - |
| 1777823451 | 13.89° C | 46% | 1018.5 hPa | 0 mm | - | - | - |
| 1777823151 | 13.89° C | 47% | 1018.5 hPa | 0 mm | - | - | - |
| 1777822851 | 13.33° C | 49% | 1018.5 hPa | 0 mm | - | - | - |
| 1777822551 | 13.33° C | 48% | 1018.6 hPa | 0 mm | - | - | - |
| 1777822251 | 13.33° C | 48% | 1018.7 hPa | 0 mm | - | - | - |
| 1777821950 | 12.78° C | 50% | 1018.6 hPa | 0 mm | - | - | - |
| 1777821652 | 12.78° C | 48% | 1018.8 hPa | 0 mm | - | - | - |
| 1777821352 | 12.78° C | 48% | 1018.7 hPa | 0 mm | - | - | - |
| 1777821050 | 12.22° C | 50% | 1018.8 hPa | 0 mm | - | - | - |
| 1777820750 | 12.22° C | 49% | 1018.9 hPa | 0 mm | - | - | - |
| 1777820450 | 12.22° C | 51% | 1018.9 hPa | 0 mm | - | - | - |
| 1777820152 | 12.22° C | 49% | 1018.9 hPa | 0 mm | - | - | - |
| 1777819852 | 12.22° C | 51% | 1018.8 hPa | 0 mm | - | - | - |
* Rain latest hour (hover to see other rain measurements)
** Current wind speed in m/s (hover to see current wind gust speed)